• En España
  • Lista de países
  • Para 7 días
  • Temperatura del agua
  • Mapa Satelital
  • El tiempo en el mapa
  • Informadores
  • user-avatar
    Iniciar sesión

    Tiempo cada hora Razgrad

    Hoy, 19 Septiembre, Miércoles

    Tiempo Temperatura Precipitaciones Viento Presión Humedad
    00:00 +15°C° 0 mm 2 mps 747 mmHg 72%
    01:00 +15°C° 0 mm 2 mps 747 mmHg 74%
    02:00 +14°C° 0 mm 1 mps 747 mmHg 75%
    03:00 +14°C° 0 mm 1 mps 747 mmHg 77%
    04:00 +14°C° 0 mm 1 mps 747 mmHg 79%
    05:00 +13°C° 0 mm 1 mps 747 mmHg 81%
    06:00 +15°C° 0 mm 1 mps 747 mmHg 77%
    07:00 +16°C° 0 mm 1 mps 747 mmHg 72%
    08:00 +18°C° 0 mm 2 mps 747 mmHg 65%
    09:00 +19°C° 0 mm 2 mps 747 mmHg 57%
    10:00 +21°C° 0 mm 2 mps 747 mmHg 50%
    11:00 +24°C° 0 mm 3 mps 748 mmHg 42%
    12:00 +25°C° 0 mm 3 mps 747 mmHg 39%
    13:00 +26°C° 0 mm 3 mps 747 mmHg 35%
    14:00 +27°C° 0 mm 3 mps 747 mmHg 35%
    15:00 +26°C° 0 mm 3 mps 747 mmHg 36%
    16:00 +26°C° 0 mm 3 mps 746 mmHg 38%
    17:00 +26°C° 0 mm 3 mps 746 mmHg 39%
    18:00 +22°C° 0 mm 3 mps 746 mmHg 48%
    19:00 +20°C° 0 mm 2 mps 746 mmHg 56%
    20:00 +18°C° 0 mm 2 mps 746 mmHg 65%
    21:00 +17°C° 0 mm 2 mps 746 mmHg 69%
    22:00 +16°C° 0 mm 2 mps 746 mmHg 74%
    23:00 +16°C° 0 mm 1 mps 746 mmHg 78%

    Mañana, 20 Septiembre, Jueves

    Tiempo Temperatura Precipitaciones Viento Presión Humedad
    00:00 +15°C° 0 mm 1 mps 746 mmHg 79%
    01:00 +15°C° 0 mm 1 mps 746 mmHg 80%
    02:00 +14°C° 0 mm 1 mps 746 mmHg 81%
    03:00 +14°C° 0 mm 1 mps 746 mmHg 82%
    04:00 +14°C° 0 mm 1 mps 746 mmHg 82%
    05:00 +13°C° 0 mm 1 mps 746 mmHg 82%
    06:00 +15°C° 0 mm 1 mps 746 mmHg 75%
    07:00 +16°C° 0 mm 1 mps 746 mmHg 68%
    08:00 +19°C° 0 mm 1 mps 746 mmHg 61%
    09:00 +21°C° 0 mm 1 mps 746 mmHg 53%
    10:00 +23°C° 0 mm 1 mps 746 mmHg 46%
    11:00 +25°C° 0 mm 2 mps 746 mmHg 38%
    12:00 +26°C° 0 mm 2 mps 746 mmHg 36%
    13:00 +27°C° 0 mm 2 mps 746 mmHg 34%
    14:00 +28°C° 0 mm 2 mps 745 mmHg 32%
    15:00 +28°C° 0 mm 2 mps 745 mmHg 34%
    16:00 +28°C° 0 mm 2 mps 745 mmHg 36%
    17:00 +27°C° 0 mm 2 mps 745 mmHg 38%
    18:00 +25°C° 0 mm 2 mps 745 mmHg 46%
    19:00 +23°C° 0 mm 2 mps 745 mmHg 54%
    20:00 +20°C° 0 mm 2 mps 745 mmHg 62%
    21:00 +19°C° 0 mm 2 mps 745 mmHg 67%
    22:00 +19°C° 0 mm 1 mps 745 mmHg 72%
    23:00 +18°C° 0 mm 1 mps 745 mmHg 77%

    Pasado mañana, 21 Septiembre, Viernes

    Tiempo Temperatura Precipitaciones Viento Presión Humedad
    00:00 +18°C° 0 mm 1 mps 745 mmHg 78%
    01:00 +18°C° 0 mm 1 mps 745 mmHg 80%
    02:00 +16°C° 0 mm 1 mps 745 mmHg 81%
    03:00 +16°C° 0 mm 1 mps 744 mmHg 81%
    04:00 +16°C° 0 mm 1 mps 744 mmHg 81%
    05:00 +15°C° 0 mm 1 mps 744 mmHg 82%
    06:00 +18°C° 0 mm 1 mps 744 mmHg 76%
    07:00 +19°C° 0 mm 1 mps 745 mmHg 70%
    08:00 +20°C° 0 mm 1 mps 745 mmHg 64%
    09:00 +23°C° 0 mm 1 mps 745 mmHg 55%
    10:00 +25°C° 0 mm 2 mps 745 mmHg 47%
    11:00 +27°C° 0 mm 2 mps 745 mmHg 38%
    12:00 +28°C° 0 mm 2 mps 745 mmHg 35%
    13:00 +29°C° 0 mm 2 mps 744 mmHg 32%
    14:00 +29°C° 0 mm 2 mps 744 mmHg 29%
    15:00 +29°C° 0 mm 2 mps 744 mmHg 31%
    16:00 +29°C° 0 mm 2 mps 744 mmHg 33%
    17:00 +28°C° 0 mm 2 mps 743 mmHg 35%
    18:00 +26°C° 0 mm 2 mps 744 mmHg 41%
    19:00 +24°C° 0 mm 2 mps 744 mmHg 47%
    20:00 +21°C° 0 mm 2 mps 744 mmHg 52%
    21:00 +21°C° 0 mm 2 mps 744 mmHg 57%
    22:00 +20°C° 0 mm 2 mps 744 mmHg 62%
    23:00 +19°C° 0 mm 2 mps 744 mmHg 67%

    22 Septiembre, Sábado

    Tiempo Temperatura Precipitaciones Viento Presión Humedad
    00:00 +20°C° 0 mm 1 mps 744 mmHg 69%
    01:00 +19°C° 0 mm 1 mps 744 mmHg 71%
    02:00 +19°C° 0 mm 1 mps 744 mmHg 73%
    03:00 +19°C° 0 mm 1 mps 744 mmHg 74%
    04:00 +18°C° 0 mm 1 mps 744 mmHg 75%
    05:00 +18°C° 0 mm 1 mps 744 mmHg 76%
    06:00 +19°C° 0 mm 1 mps 744 mmHg 70%
    07:00 +19°C° 0 mm 0 mps 744 mmHg 64%
    08:00 +20°C° 0 mm 0 mps 744 mmHg 58%
    09:00 +22°C° 0 mm 0 mps 744 mmHg 50%
    10:00 +27°C° 0 mm 1 mps 744 mmHg 42%
    11:00 +29°C° 0 mm 1 mps 744 mmHg 34%
    12:00 +30°C° 0 mm 1 mps 744 mmHg 31%
    13:00 +31°C° 0 mm 1 mps 744 mmHg 29%
    14:00 +31°C° 0 mm 1 mps 743 mmHg 26%
    15:00 +31°C° 0 mm 1 mps 743 mmHg 28%
    16:00 +30°C° 0 mm 1 mps 743 mmHg 29%
    17:00 +30°C° 0 mm 1 mps 743 mmHg 30%
    18:00 +27°C° 0 mm 1 mps 743 mmHg 35%
    19:00 +25°C° 0 mm 1 mps 743 mmHg 40%
    20:00 +23°C° 0 mm 1 mps 743 mmHg 44%
    21:00 +22°C° 0 mm 1 mps 743 mmHg 46%
    22:00 +22°C° 0 mm 1 mps 743 mmHg 48%
    23:00 +21°C° 0 mm 1 mps 743 mmHg 50%

    23 Septiembre, Domingo

    Tiempo Temperatura Precipitaciones Viento Presión Humedad
    00:00 +21°C° 0 mm 1 mps 743 mmHg 50%
    01:00 +21°C° 0 mm 1 mps 743 mmHg 50%
    02:00 +20°C° 0 mm 1 mps 743 mmHg 50%
    03:00 +20°C° 0 mm 1 mps 743 mmHg 50%
    04:00 +20°C° 0 mm 1 mps 743 mmHg 50%
    05:00 +20°C° 0 mm 1 mps 743 mmHg 50%
    06:00 +20°C° 0 mm 2 mps 743 mmHg 48%
    07:00 +21°C° 0 mm 3 mps 744 mmHg 45%
    08:00 +24°C° 0 mm 3 mps 744 mmHg 43%
    09:00 +25°C° 0 mm 3 mps 744 mmHg 41%
    10:00 +27°C° 0 mm 4 mps 745 mmHg 40%
    11:00 +28°C° 0 mm 4 mps 745 mmHg 38%
    12:00 +29°C° 0 mm 4 mps 745 mmHg 37%
    13:00 +29°C° 0 mm 3 mps 744 mmHg 35%
    14:00 +30°C° 0 mm 3 mps 744 mmHg 33%
    15:00 +30°C° 0 mm 3 mps 744 mmHg 34%
    16:00 +29°C° 0 mm 2 mps 744 mmHg 35%
    17:00 +29°C° 0 mm 2 mps 744 mmHg 37%
    18:00 +27°C° 0 mm 2 mps 744 mmHg 43%
    19:00 +25°C° 0 mm 2 mps 744 mmHg 49%
    20:00 +21°C° 0 mm 2 mps 744 mmHg 56%
    21:00 +21°C° 0 mm 3 mps 744 mmHg 62%
    22:00 +20°C° 0 mm 3 mps 744 mmHg 68%
    23:00 +19°C° 0 mm 3 mps 744 mmHg 74%

    24 Septiembre, Lunes

    Tiempo Temperatura Precipitaciones Viento Presión Humedad
    00:00 +19°C° 0 mm 3 mps 744 mmHg 77%
    01:00 +19°C° 0 mm 3 mps 744 mmHg 81%
    02:00 +18°C° 0 mm 3 mps 743 mmHg 84%
    03:00 +18°C° 0 mm 3 mps 743 mmHg 85%
    04:00 +18°C° 0 mm 3 mps 742 mmHg 87%
    05:00 +18°C° 0 mm 3 mps 742 mmHg 88%
    06:00 +19°C° 0 mm 4 mps 741 mmHg 81%
    07:00 +21°C° 0 mm 4 mps 741 mmHg 74%
    08:00 +22°C° 0 mm 4 mps 740 mmHg 67%
    09:00 +25°C° 0 mm 5 mps 740 mmHg 56%
    10:00 +28°C° 0 mm 5 mps 740 mmHg 46%
    11:00 +30°C° 0 mm 6 mps 739 mmHg 36%
    12:00 +32°C° 0 mm 6 mps 738 mmHg 33%
    13:00 +33°C° 0 mm 6 mps 737 mmHg 30%
    14:00 +34°C° 0 mm 6 mps 737 mmHg 28%
    15:00 +34°C° 0 mm 5 mps 736 mmHg 28%
    16:00 +34°C° 0 mm 4 mps 736 mmHg 29%
    17:00 +33°C° 0 mm 3 mps 736 mmHg 30%
    18:00 +29°C° 0 mm 5 mps 736 mmHg 36%
    19:00 +24°C° 0 mm 7 mps 737 mmHg 42%
    20:00 +21°C° 0 mm 9 mps 738 mmHg 48%
    21:00 +18°C° 0 mm 9 mps 739 mmHg 48%
    22:00 +17°C° 0 mm 9 mps 740 mmHg 49%
    23:00 +16°C° 0 mm 9 mps 740 mmHg 49%
    Mostrar más